Location: Mannheim
(49.4967°N, 8.4795°E)
Time: 09:50:44
(UTC+00:00)

Daily predictions for brighter satellites

Satellite Brightness Start Highest point End
(mag) Time Altitude Azimuth Time Altitude Azimuth Time Altitude Azimuth
Cosmos 1814 Rocket 4.4 17:04:08 10° S 17:09:04 42° ESE 17:14:00 10° NE
SAR-Lupe-4 3.8 17:06:20 10° SE 17:09:46 47° ENE 17:13:13 10° N
ATLAS 3B R/B 4.1 17:02:28 10° NW 17:09:52 48° WSW 17:16:51 10° S
Cosmos 1125 Rocket 4.2 17:07:55 10° N 17:12:36 33° NE 17:17:15 10° ESE
IRS-1C 4.3 17:08:10 10° SSE 17:13:30 86° WSW 17:18:52 10° NNW
YAOGAN 1 2.7 17:16:49 10° SE 17:20:54 48° ENE 17:25:01 10° N
Cosmos 2123 Rocket 4.0 17:15:27 10° S 17:21:44 75° E 17:28:03 10° NNE
Okean 2 Rocket 3.5 17:18:22 10° N 17:22:31 39° ENE 17:26:37 10° SE
Cosmos 1900 4.4 17:17:51 10° SSW 17:22:57 85° SE 17:28:01 10° NE
NOSS 3-3 (C) 4.5 17:18:48 10° S 17:23:19 31° ESE 17:28:31 10° NE
NOAA 6 4.5 17:19:14 10° SE 17:23:58 39° ENE 17:28:45 10° N
Okean 1 Rocket 3.6 17:21:53 10° N 17:26:00 36° ENE 17:30:03 10° SE
Spot 4 Rocket 4.2 17:21:17 10° SE 17:26:11 49° ENE 17:31:06 10° N
COSMOS 2428 2.7 17:22:25 10° NNW 17:28:09 68° ENE 17:33:51 10° SE
Cosmos 1980 4.2 17:26:27 10° NNW 17:31:46 38° NE 17:37:01 10° ESE
Sich 1 Rocket 4.0 17:27:46 10° N 17:32:05 40° ENE 17:36:22 10° SE
ARIANE 5 R/B 3.3 17:27:45 10° S 17:32:47 58° WSW 17:37:49 10° NNW
Cosmos 158 Rocket 3.8 17:32:14 10° S 17:37:02 65° ESE 17:41:52 10° NNE
Cosmos 2237 Rocket 2.7 17:32:03 10° NNW 17:37:23 39° NE 17:42:41 10° ESE
Aureole 3 Rocket 3.5 17:33:29 10° N 17:37:28 32° ENE 17:40:37 10° SE
ATLAS 5 CENTAUR R/B 2.5 17:34:46 10° NW 17:38:57 54° SW 17:44:06 10° SSE
Cosmos 192 4.2 17:34:18 10° NNW 17:39:12 74° ENE 17:44:04 10° SSE
SeaSat 1 3.4 17:35:02 10° SSE 17:39:48 53° WSW 17:44:36 10° NW
Cosmos 1378 Rocket 3.4 17:35:55 10° S 17:40:14 83° E 17:44:34 10° NNE
Resurs 01 Rocket 2.1 17:37:12 10° SE 17:41:15 38° ENE 17:45:21 10° N
SKYMED 2 3.5 17:38:37 10° NNE 17:42:59 80° ESE 17:47:20 10° S
GP-B 3.4 17:39:50 10° S 17:44:11 72° W 17:48:34 10° N
Cosmos 2219 Rocket 4.0 17:41:58 10° NW 17:46:59 35° WSW 17:51:59 10° S
COSMO-SKYMED 1 2.5 17:43:15 10° NNE 17:47:17 52° E 17:51:18 10° S
Cosmos 2228 4.3 17:45:36 10° NNE 17:48:37 19° ENE 17:49:16 18° E
Cosmos 2292 Rocket 3.8 17:46:59 10° SSW 17:49:45 44° WNW 17:52:41 10° N
PSLV R/B 3.4 17:47:00 10° SSE 17:51:04 62° ENE 17:55:08 10° N
NOSS 3-3 (A) 3.8 17:46:54 10° SSW 17:51:55 56° ESE 17:57:36 11° NE
Cosmos 2322 3.9 17:46:39 10° NNW 17:52:23 76° WSW 17:58:04 10° SSE
USA 306 1.2 17:51:30 10° WNW 17:54:22 76° SSW 17:55:03 37° SE
Cosmos 2016 Rocket 4.4 17:48:13 10° NNW 17:54:24 70° W 18:00:38 10° S
Resurs 1-3 3.7 17:50:30 10° S 17:54:47 75° WSW 17:59:07 10° NNW
Cosmos 1025 Rocket 2.9 17:54:17 10° S 17:58:33 72° E 18:02:53 10° NNE
SJ-7 4.0 17:55:09 10° SSE 17:58:50 86° ENE 18:02:33 10° NNW
Cosmos 2285 Rocket 4.0 17:52:54 10° NNW 17:59:20 66° ENE 18:05:42 10° SE
SL-16 R/B 3.4 17:56:10 10° N 18:00:35 23° NE 18:02:27 19° ENE
Cosmos 2227 Rocket 3.5 18:00:30 10° SE 18:03:35 18° ESE 18:03:35 18° ESE
SJ-6B 2.7 18:05:12 13° SE 18:08:01 43° ENE 18:11:19 10° N
NOSS 3-4 (A) 3.9 18:03:10 10° NW 18:09:35 57° NE 18:15:10 19° ESE
NOSS 3-4 (C) 3.9 18:03:25 10° NW 18:09:51 57° NE 18:15:23 19° ESE
SPOT 5 3.7 18:08:21 24° E 18:09:59 30° ENE 18:14:19 10° N
Cosmos 2233 Rocket 4.3 18:04:08 10° NNW 18:10:22 71° W 18:16:38 10° S
CZ-2D R/B 4.0 18:08:53 10° S 18:12:42 56° W 18:16:38 10° NNW
Cosmos 1674 Rocket 4.0 18:10:27 10° SSW 18:14:48 64° WNW 18:19:12 10° N
Cosmos 1315 Rocket 4.4 18:12:51 10° NNW 18:16:21 35° W 18:19:49 10° SSW
Cosmos 1513 Rocket 4.5 18:12:05 10° N 18:18:18 63° ENE 18:24:35 10° SSE
Cosmos 1867 4.3 18:17:44 10° WSW 18:23:03 53° NW 18:27:56 12° NNE
ATLAS 2AS CENTAUR R/B 4.1 18:20:04 10° WNW 18:25:58 29° NNW 18:31:15 12° NE
CZ-4 R/B 3.1 18:28:09 16° NNE 18:28:09 16° NNE 18:29:14 10° N
CZ-4B R/B 4.2 18:26:45 25° NE 18:26:45 25° NE 18:30:46 10° N
Helios 1A Rocket 4.3 18:28:45 17° SSE 18:28:45 17° SSE 18:29:40 10° S
Lacrosse 5 rocket 1.9 18:23:49 10° W 18:27:09 40° NNW 18:28:21 29° NNE
Meteor 1-31 Rocket 4.0 18:32:59 23° NNE 18:32:59 23° NNE 18:34:36 10° N
CZ-4C R/B 2.0 18:28:11 10° SW 18:32:30 71° NW 18:36:09 21° NE
IRAS Rocket 4.2 18:29:03 10° SSE 18:34:39 88° WSW 18:40:20 10° NNW
CARTOSAT-1 4.4 18:30:44 10° S 18:34:49 49° W 18:38:55 10° NNW
CRYOSAT 2 4.3 18:32:39 10° N 18:37:34 88° E 18:42:28 10° S
USA 267 3.8 18:41:48 25° NE 18:45:30 50° N 18:51:45 10° W
Cosmos 1464 Rocket 3.9 18:39:41 10° N 18:46:05 71° E 18:52:23 10° SSE
CSL-04 Debris 4.2 18:44:38 35° SE 18:46:45 58° ENE 18:52:05 10° N
ERS-1 Rocket 4.1 18:48:48 27° NNE 18:48:48 27° NNE 18:51:42 10° N
Cosmos 2297 Rocket 2.1 18:43:00 10° SSW 18:48:40 84° ESE 18:52:37 21° NNE
Cosmos 1607 4.4 18:43:23 10° WSW 18:49:25 56° NW 18:54:10 17° NNE
Cosmos 1570 Rocket 3.9 18:44:23 10° SSW 18:49:38 76° ESE 18:52:48 25° NNE
CSL-04 Rocket 3.5 18:47:26 34° SE 18:49:41 65° ENE 18:54:55 10° N
BREEZE-M DEB (TANK) 4.4 18:46:54 10° W 18:50:52 63° SSW 18:56:52 25° SE
Cosmos 2344 3.9 18:43:55 10° S 18:50:58 36° ESE 18:51:12 36° ESE
Cosmos 1455 Rocket 3.4 18:47:24 10° NNW 18:51:39 63° W 18:55:53 10° S
Cosmos 1975 Rocket 4.0 18:48:05 10° S 18:50:38 34° SSE 18:50:38 34° SSE
DNEPR-1 R/B 3.9 18:48:43 10° NW 18:53:27 64° NE 18:54:12 57° E
PAYLOAD B 4.2 19:05:27 60° E 19:05:39 60° ENE 19:11:11 10° N
Cosmos 2208 Rocket 3.8 19:01:37 10° SSW 19:06:49 77° ESE 19:07:29 66° NE
Terra 3.5 19:11:53 21° N 19:11:53 21° N 19:13:35 10° N
NOSS 3-3 (C) 4.2 19:08:26 10° WSW 19:13:44 59° NW 19:16:44 30° NNE
CZ-4B R/B 4.5 19:14:51 54° WNW 19:14:51 54° WNW 19:18:11 10° NNW
Resurs 01 Rocket 3.7 19:14:02 10° SSW 19:17:43 26° W 19:21:27 10° NW
Cosmos 2237 Rocket 3.3 19:16:09 10° NW 19:21:30 43° WSW 19:25:52 15° S
ARIANE 6 FM1 Upper Stage 4.5 19:18:27 10° NW 19:20:14 23° NNW 19:20:14 23° NNW
Cosmos 44 Rocket 4.0 19:18:00 10° SSW 19:21:20 44° SSW 19:21:20 44° SSW
Cosmos 773 Rocket 4.1 19:18:56 10° SSW 19:24:12 75° WNW 19:25:06 60° N
Cosmos 2228 3.8 19:21:51 10° NNW 19:25:36 47° W 19:25:36 47° W
Orbus 7S? 4.2 19:21:49 10° WNW 19:28:58 60° SW 19:28:58 60° SW
Cosmos 2298 Rocket 4.5 19:28:56 10° NNW 19:34:08 58° WSW 19:34:43 55° SW
SL-16 R/B 2.5 19:39:45 10° NNW 19:44:20 60° NNW 19:44:20 60° NNW
Cosmos 2227 Rocket 3.1 19:41:57 10° SSW 19:45:30 40° SW 19:45:30 40° SW
SPOT 5 3.9 19:47:22 41° WSW 19:47:45 42° W 19:52:31 10° NNW
CZ-4 R/B 4.4 20:03:09 11° NW 20:03:09 11° NW 20:03:18 10° NW
Lacrosse 5 rocket 4.4 20:01:41 10° WNW 20:01:47 11° WNW 20:01:47 11° WNW
CZ-4B R/B 4.4 20:08:36 37° NW 20:08:36 37° NW 20:11:58 10° NNW
BREEZE-M DEB (TANK) 4.1 19:57:31 10° W 20:10:46 62° SW 20:10:46 62° SW
ATLAS 2AS CENTAUR R/B 4.2 20:13:26 10° NW 20:18:40 26° N 20:18:40 26° N
CZ-4C R/B 3.9 20:17:39 10° WNW 20:21:07 25° NNW 20:21:07 25° NNW
USA 267 4.0 20:29:08 44° NNW 20:29:08 44° NNW 20:34:09 10° WNW
Cosmos 2297 Rocket 4.2 20:28:54 10° W 20:33:24 24° NW 20:34:29 22° NNW
